DW6162 Weather Reports


time (UTC)temp
C
wind
direction
speed
KPH
gust
KPH
rain 1hr
cm
rain 24hr
cm
rain mn
cm
humidity
%
barometer
mb
20260902091644 18 0 0.0 0.0 0.00 0.00 0.00 98 1019.2
20260902091503 18 101 0.0 0.0 0.00 0.00 0.00 98 1015.9
20260902090743 18 0 0.0 0.0 0.00 0.00 0.00 98 1019.3
20260902090120 18 101 0.0 0.0 0.00 0.00 0.00 98 1016.0
20260902085844 19 0 0.0 0.0 0.00 0.00 0.00 98 1019.3
20260902084503 18 101 0.0 0.0 0.00 0.00 0.00 98 1016.2
20260902084043 18 0 0.0 0.0 0.00 0.00 0.00 98 1019.5
20260902083143 18 0 0.0 0.0 0.00 0.00 0.00 98 1019.4
20260902083106 18 102 0.0 1.6 0.00 0.00 0.00 98 1016.2
20260902082243 18 105 0.0 1.6 0.00 0.00 0.00 98 1019.3
20260902081503 18 144 0.0 1.6 0.00 0.00 0.00 98 1016.0
20260902081343 18 143 0.0 1.6 0.00 0.00 0.00 98 1019.2
20260902080443 18 143 0.0 1.6 0.00 0.00 0.00 98 1019.3
20260902075543 19 155 0.0 4.8 0.00 0.00 0.00 98 1019.3
20260902074643 19 156 0.0 1.6 0.00 0.00 0.00 98 1019.4
20260902074502 18 156 0.0 1.6 0.00 0.00 0.00 98 1016.1
20260902073104 18 162 0.0 3.2 0.00 0.00 0.00 98 1016.2
20260902071943 18 0 0.0 0.0 0.00 0.00 0.00 98 1019.4
20260902071502 18 211 0.0 0.0 0.00 0.00 0.00 98 1016.2
20260902071043 18 0 0.0 0.0 0.00 0.00 0.00 98 1019.4
20260902070143 18 0 0.0 0.0 0.00 0.00 0.00 98 1019.4
20260902064502 18 215 0.0 1.6 0.00 0.00 0.00 98 1016.4
20260902064343 18 216 0.0 1.6 0.00 0.00 0.00 97 1019.7
20260902063443 18 215 0.0 1.6 0.00 0.00 0.00 97 1019.7
20260902063102 18 215 0.0 0.0 0.00 0.00 0.00 97 1016.4
20260902062544 18 0 0.0 0.0 0.00 0.00 0.00 97 1019.6
20260902061643 18 216 1.6 3.2 0.00 0.00 0.00 97 1019.5
20260902061507 18 215 0.0 1.6 0.00 0.00 0.00 97 1016.3
20260902060743 18 216 0.0 1.6 0.00 0.00 0.00 98 1019.6
20260902060107 18 216 0.0 1.6 0.00 0.00 0.00 98 1016.3
20260902054943 18 0 0.0 0.0 0.00 0.00 0.00 98 1019.8
20260902054501 18 215 0.0 1.6 0.00 0.00 0.00 98 1016.5
20260902054043 18 216 0.0 1.6 0.00 0.00 0.00 98 1019.8
20260902053143 18 215 0.0 1.6 0.00 0.00 0.00 98 1019.9
20260902053108 18 216 0.0 1.6 0.00 0.00 0.00 98 1016.6
20260902052243 18 0 0.0 0.0 0.00 0.00 0.00 98 1019.8
20260902051502 18 215 0.0 0.0 0.00 0.00 0.00 98 1016.5
20260902051343 18 0 0.0 0.0 0.00 0.00 0.00 98 1019.7
20260902050443 18 0 0.0 0.0 0.00 0.00 0.00 98 1019.7
20260902050105 18 215 0.0 1.6 0.00 0.00 0.00 98 1016.5
20260902045543 18 216 0.0 1.6 0.00 0.00 0.00 98 1019.7
20260902044503 18 215 1.6 3.2 0.00 0.00 0.00 98 1016.5
20260902043743 18 216 1.6 3.2 0.00 0.00 0.00 98 1019.7
20260902043005 18 215 0.0 3.2 0.00 0.00 0.00 97 1016.3
20260902042843 18 207 1.6 3.2 0.00 0.00 0.00 97 1019.6
20260902041943 18 161 0.0 1.6 0.00 0.00 0.00 97 1019.3
20260902041603 18 162 0.0 1.6 0.00 0.00 0.00 96 1016.0
20260902041043 18 162 0.0 1.6 0.00 0.00 0.00 96 1019.3
20260902040143 19 162 0.0 1.6 0.00 0.00 0.00 95 1019.0
20260902040002 19 162 0.0 1.6 0.00 0.00 0.00 95 1015.7
20260902035243 19 0 0.0 0.0 0.00 0.00 0.00 96 1018.9
20260902034605 19 162 0.0 0.0 0.00 0.00 0.00 95 1015.4
20260902034343 19 0 0.0 0.0 0.00 0.00 0.00 96 1018.7
20260902033443 19 0 0.0 0.0 0.00 0.00 0.00 95 1018.8
20260902033005 19 162 0.0 0.0 0.00 0.00 0.00 95 1015.4
20260902031643 20 0 0.0 0.0 0.00 0.00 0.00 95 1018.5
20260902031602 20 162 0.0 0.0 0.00 0.00 0.00 95 1015.2
20260902030743 20 0 0.0 0.0 0.00 0.00 0.00 94 1018.5
20260902030002 20 162 0.0 0.0 0.00 0.00 0.00 93 1015.2
20260902025843 20 0 0.0 0.0 0.00 0.00 0.00 93 1018.5
20260902024943 20 0 0.0 0.0 0.00 0.00 0.00 93 1018.5
20260902024605 20 162 0.0 0.0 0.00 0.00 0.00 93 1015.2
20260902024043 20 158 0.0 3.2 0.00 0.00 0.00 93 1018.4
20260902023143 20 134 0.0 3.2 0.00 0.00 0.00 93 1018.5
20260902023111 20 134 0.0 1.6 0.00 0.00 0.00 93 1015.2
20260902022244 20 123 0.0 1.6 0.00 0.00 0.00 93 1018.6
20260902021502 20 124 0.0 0.0 0.00 0.00 0.00 93 1015.4
20260902021343 20 0 0.0 0.0 0.00 0.00 0.00 92 1018.8
20260902020443 20 0 0.0 0.0 0.00 0.00 0.00 92 1018.8
20260902020104 20 124 0.0 0.0 0.00 0.00 0.00 91 1015.4
20260902015543 21 124 0.0 1.6 0.00 0.00 0.00 91 1018.7
20260902014643 21 133 0.0 1.6 0.00 0.00 0.00 90 1019.0
20260902014505 21 146 0.0 1.6 0.00 0.00 0.00 90 1015.6
20260902013743 21 85 1.6 8.0 0.00 0.00 0.00 90 1019.1
20260902013107 21 82 1.6 4.8 0.00 0.00 0.00 91 1015.9
20260902012843 21 184 0.0 6.4 0.00 0.00 0.00 92 1019.3
20260902011943 21 197 1.6 3.2 0.00 0.00 0.00 92 1018.9
20260902011505 21 193 0.0 3.2 0.00 0.00 0.00 91 1015.4
20260902011043 21 341 0.0 1.6 0.00 0.00 0.00 92 1018.9
20260902010112 21 342 0.0 1.6 0.00 0.00 0.00 92 1014.8
20260902005243 21 341 0.0 1.6 0.00 0.00 0.00 92 1018.2
20260902004502 21 341 0.0 0.0 0.00 0.00 0.00 91 1014.7
20260902004343 21 0 0.0 0.0 0.00 0.00 0.00 91 1018.0
20260902003443 21 342 0.0 1.6 0.00 0.00 0.00 90 1018.0
20260902003103 21 342 0.0 1.6 0.00 0.00 0.00 90 1014.7
20260902002543 21 342 0.0 1.6 0.00 0.00 0.00 90 1018.2
20260902001502 21 341 0.0 1.6 0.00 0.00 0.00 89 1014.5
20260902000743 22 338 1.6 4.8 0.00 0.00 0.00 88 1017.9
20260902000106 22 342 1.6 4.8 0.00 0.00 0.00 87 1014.2
20260901234943 22 327 4.8 9.7 0.00 0.00 0.00 86 1017.4
20260901234503 22 330 3.2 9.7 0.00 0.00 0.00 85 1013.8
20260901234043 22 330 3.2 9.7 0.00 0.00 0.00 85 1017.2
20260901233143 22 325 3.2 4.8 0.00 0.00 0.00 85 1017.2
20260901233102 22 333 1.6 6.4 0.00 0.00 0.00 85 1013.6
20260901231504 22 323 4.8 8.0 0.00 0.00 0.00 84 1013.2
20260901231343 23 322 4.8 8.0 0.00 0.00 0.00 84 1016.9
20260901230443 23 331 4.8 9.7 0.00 0.00 0.00 83 1017.1
20260901225543 23 345 3.2 8.0 0.00 0.00 0.00 80 1017.4
20260901224643 24 349 3.2 4.8 0.00 0.00 0.00 79 1017.3
20260901224503 24 333 1.6 4.8 0.00 0.00 0.00 79 1013.8
20260901223743 25 342 3.2 4.8 0.00 0.00 0.00 78 1017.5
20260901223103 25 312 1.6 4.8 0.00 0.00 0.00 78 1013.9
20260901222843 25 28 0.0 3.2 0.00 0.00 0.00 78 1017.3
20260901221943 26 8 3.2 6.4 0.00 0.00 0.00 78 1017.3
20260901221502 26 19 1.6 4.8 0.00 0.00 0.00 78 1013.9
20260901220143 27 355 6.4 16.1 0.00 0.00 0.00 74 1017.5
20260901220117 27 324 4.8 14.5 0.00 0.00 0.00 74 1013.9
20260901214503 27 93 3.2 12.9 0.00 0.00 0.00 73 1013.4
20260901214343 28 35 3.2 12.9 0.00 0.00 0.00 73 1016.8
20260901213443 28 15 4.8 12.9 0.00 0.00 0.00 71 1016.8
20260901213107 28 19 1.6 11.3 0.00 0.00 0.00 71 1013.3
20260901212543 28 15 3.2 12.9 0.00 0.00 0.00 71 1016.8
20260901211643 28 16 3.2 8.0 0.00 0.00 0.00 71 1016.7
20260901211502 28 72 3.2 8.0 0.00 0.00 0.00 70 1013.2
20260901210743 29 19 4.8 9.7 0.00 0.00 0.00 70 1016.9
20260901205843 29 1 4.8 11.3 0.00 0.00 0.00 71 1016.7
20260901204943 28 7 4.8 9.7 0.00 0.00 0.00 72 1016.9
20260901204505 28 25 3.2 11.3 0.00 0.00 0.00 70 1013.3
20260901204043 28 13 4.8 12.9 0.00 0.00 0.00 69 1016.9
20260901203143 28 9 4.8 8.0 0.00 0.00 0.00 72 1017.0
20260901203102 28 336 3.2 8.0 0.00 0.00 0.00 71 1013.5
20260901202243 28 13 3.2 9.7 0.00 0.00 0.00 72 1017.1
20260901201502 28 33 3.2 6.4 0.00 0.00 0.00 72 1013.7
20260901201343 28 18 3.2 6.4 0.00 0.00 0.00 73 1017.2
20260901200443 28 14 4.8 11.3 0.00 0.00 0.00 73 1017.1
20260901195543 28 9 4.8 14.5 0.00 0.00 0.00 71 1017.1
20260901194502 28 8 3.2 9.7 0.00 0.00 0.00 70 1013.8
20260901193752 28 18 3.2 11.3 0.00 0.00 0.00 73 1017.2
20260901193104 28 4 3.2 9.7 0.00 0.00 0.00 72 1013.9
20260901192843 28 18 3.2 11.3 0.00 0.00 0.00 72 1017.3
20260901191503 28 41 1.6 6.4 0.00 0.00 0.00 72 1013.9
20260901191043 28 27 3.2 8.0 0.00 0.00 0.00 74 1017.3
20260901185243 28 19 3.2 8.0 0.00 0.00 0.00 73 1017.4
20260901184502 28 222 3.2 12.9 0.00 0.00 0.00 74 1014.1
20260901184342 28 13 4.8 14.5 0.00 0.00 0.00 76 1017.4
20260901183442 28 21 3.2 8.0 0.00 0.00 0.00 74 1017.6
20260901183104 27 61 1.6 6.4 0.00 0.00 0.00 76 1014.3
20260901182543 27 7 3.2 8.0 0.00 0.00 0.00 76 1017.5
20260901181643 28 26 4.8 11.3 0.00 0.00 0.00 75 1017.6
20260901181503 27 72 4.8 14.5 0.00 0.00 0.00 74 1014.2
20260901180105 27 249 0.0 6.4 0.00 0.00 0.00 78 1014.2
20260901175842 27 17 1.6 8.0 0.00 0.00 0.00 78 1017.4
20260901174503 26 347 0.0 4.8 0.00 0.00 0.00 82 1014.3
20260901173143 26 13 3.2 14.5 0.00 0.00 0.00 80 1017.4
20260901173104 26 25 3.2 12.9 0.00 0.00 0.00 80 1014.2
20260901172243 27 13 3.2 11.3 0.00 0.00 0.00 80 1017.2
20260901171502 26 8 3.2 8.0 0.00 0.00 0.00 80 1014.0
20260901171343 27 31 1.6 8.0 0.00 0.00 0.00 80 1017.2
20260901170443 26 12 3.2 12.9 0.00 0.00 0.00 80 1017.2
20260901165542 26 24 3.2 12.9 0.00 0.00 0.00 82 1017.2
20260901164643 26 23 4.8 9.7 0.00 0.00 0.00 83 1017.1
20260901164505 25 141 3.2 9.7 0.00 0.00 0.00 83 1014.1
20260901163109 25 25 1.6 9.7 0.00 0.00 0.00 85 1014.1
20260901162843 25 11 4.8 11.3 0.00 0.00 0.00 85 1017.2
20260901161942 25 18 4.8 16.1 0.00 0.00 0.00 84 1017.3
20260901161502 25 347 4.8 17.7 0.00 0.00 0.00 84 1014.2
20260901161043 25 36 3.2 11.3 0.00 0.00 0.00 85 1017.3
20260901160143 25 51 3.2 9.7 0.00 0.00 0.00 86 1017.4
20260901160111 25 8 3.2 4.8 0.00 0.00 0.00 86 1014.3
20260901155243 25 34 3.2 11.3 0.00 0.03 0.00 87 1017.3
20260901154503 24 29 3.2 11.3 0.00 0.36 0.00 87 1014.5
20260901154342 25 24 3.2 11.3 0.00 0.15 0.00 87 1017.5
20260901153443 25 28 3.2 11.3 0.00 0.30 0.00 87 1017.5
20260901153103 24 82 3.2 9.7 0.00 0.36 0.00 86 1014.4
20260901152543 24 37 3.2 11.3 0.00 0.30 0.00 88 1017.4
20260901151643 24 16 3.2 8.0 0.00 0.33 0.00 89 1017.4
20260901151503 23 328 1.6 6.4 0.00 0.36 0.00 89 1014.5
20260901150743 23 50 1.6 8.0 0.00 0.36 0.00 89 1017.6
20260901145843 23 53 3.2 11.3 0.00 0.36 0.00 90 1017.6
20260901144943 23 18 3.2 16.1 0.00 0.36 0.00 90 1017.6
20260901144502 23 61 3.2 14.5 0.00 0.46 0.00 90 1014.7
20260901143142 23 37 4.8 12.9 0.00 0.43 0.00 91 1017.5
20260901143103 22 46 3.2 11.3 0.00 0.46 0.00 91 1014.7
20260901142242 22 34 3.2 16.1 0.00 0.43 0.00 92 1017.4
20260901141502 22 39 1.6 11.3 0.00 0.46 0.00 93 1014.6
20260901141342 22 69 3.2 11.3 0.00 0.43 0.00 93 1017.3
20260901140442 22 85 1.6 6.4 0.00 0.43 0.00 94 1017.5
20260901140108 21 78 1.6 12.9 0.00 0.46 0.00 95 1014.7
20260901135542 22 124 1.6 12.9 0.00 0.46 0.00 95 1017.6
20260901134642 22 106 1.6 8.0 0.00 0.46 0.00 95 1017.5
20260901134502 21 80 1.6 6.4 0.00 0.48 0.00 95 1014.7
20260901133742 21 95 0.0 3.2 0.00 0.46 0.00 96 1017.6
20260901133102 21 179 0.0 4.8 0.00 0.48 0.00 97 1014.9
20260901132842 21 78 1.6 6.4 0.00 0.48 0.00 97 1017.7
20260901131942 21 82 0.0 4.8 0.00 0.48 0.00 98 1017.8
20260901131504 20 71 0.0 3.2 0.00 0.48 0.00 98 1015.0
20260901131042 20 76 1.6 4.8 0.00 0.48 0.00 98 1017.9
20260901130143 20 74 0.0 3.2 0.00 0.48 0.00 99 1018.0
20260901130105 20 61 0.0 3.2 0.00 0.48 0.00 99 1015.2
20260901125242 20 87 0.0 4.8 0.00 0.48 0.00 99 1018.0
20260901124506 20 77 0.0 0.0 0.00 0.48 0.00 99 1015.4
20260901124342 20 0 0.0 0.0 0.00 0.48 0.00 99 1018.0
20260901123442 20 0 0.0 0.0 0.00 0.48 0.00 99 1018.2
20260901123102 19 77 0.0 0.0 0.00 0.48 0.00 99 1015.6
20260901122543 20 69 0.0 3.2 0.00 0.48 0.00 99 1018.3
20260901121642 20 88 0.0 4.8 0.00 0.48 0.00 99 1018.3
20260901121503 19 95 0.0 3.2 0.00 0.48 0.00 99 1015.6
20260901115842 20 74 0.0 1.6 0.00 0.48 0.00 99 1018.2
20260901114942 20 73 0.0 3.2 0.00 0.48 0.00 99 1018.1
20260901114503 19 74 0.0 3.2 0.00 0.48 0.00 99 1015.5
20260901114042 20 47 0.0 3.2 0.00 0.48 0.00 99 1018.1
20260901113142 20 59 0.0 3.2 0.00 0.48 0.00 99 1018.2
20260901113104 20 33 0.0 3.2 0.00 0.48 0.00 99 1015.6
20260901112242 20 89 0.0 3.2 0.00 0.48 0.00 99 1018.2
20260901111503 20 89 0.0 1.6 0.00 0.48 0.00 99 1015.5
20260901111342 20 90 0.0 1.6 0.00 0.48 0.00 99 1018.2
20260901110442 20 129 0.0 1.6 0.00 0.48 0.00 99 1018.0
20260901104503 19 130 0.0 4.8 0.00 0.48 0.00 99 1015.4
20260901103742 20 89 0.0 4.8 0.00 0.48 0.00 99 1018.1
20260901103106 19 95 0.0 1.6 0.00 0.48 0.00 99 1015.5
20260901101942 20 154 0.0 1.6 0.00 0.48 0.00 99 1018.0
20260901101506 19 78 0.0 0.0 0.00 0.48 0.00 99 1015.4
20260901101042 20 0 0.0 0.0 0.00 0.48 0.00 99 1017.8
20260901100142 20 0 0.0 0.0 0.00 0.48 0.00 99 1017.9
20260901100106 19 88 0.0 0.0 0.00 0.48 0.00 99 1015.4
20260901095242 20 0 0.0 0.0 0.00 0.48 0.00 99 1017.9
20260901094503 19 121 0.0 1.6 0.00 0.48 0.00 99 1015.5
20260901094342 19 201 0.0 1.6 0.00 0.48 0.00 99 1018.0
20260901093442 19 218 0.0 1.6 0.00 0.48 0.00 99 1018.1
20260901093104 19 134 0.0 0.0 0.00 0.48 0.00 99 1015.6